map of BZV home
BZV - Airport
Location
City:  Brazzaville, Pool, Congo (Republic of)
Name:Maya Maya
ICAO:FCBB
IATA:BZV

Details
Type:Airport (Aerodrome, Airfield)
Use:Public/Civil, International (customs port of entry)
Latitude:415'02"S (-4.250499)
Longitude:1515'05"E (15.251500)
Elevation:1047 ft (319 m)
Variation:1.29W (WMM2015 magnetic declination)
0.15 annual change
Runways:1
Longest:10827 × 148 ft (3300 × 45 m)

Time
Time Zone:UTC+1
Local Time:

Weather
METAR:FCBB 280100Z 24004KT 8000 BKN020 FEW030CB 24/22 Q1015 NOSIG
TAF:FCBB 272300Z 2800/2906 28002KT 8000 FEW015
BECMG 2813/2815 FEW020 FEW030CB PROB30
TEMPO 2817/2820 TS
BECMG 2821/2823 SCT013

Related Locations
Nearby:
Farthest:PLPA: 12228 mi / 19679 km
Palmyra Island Atoll [Palmyra Airport (Cooper)], UM

Find:

   beyond  
but within

Other Information
Maps:
NOTAMs:
Links:
Sources:

  
flag of Congo (Republic of)   

Sectional Chart

Flight Planning
at skyvector.com

Satellite Image

Google Maps Satellite view

 

Copyright © 2004-2018 Karl L. Swartz. All rights reserved.
The Great Circle Mapper name and logo are trademarks of the Great Circle Mapper.
All other trademarks mentioned herein belong to their respective owners.
Please see credits for attibutions and further copyright information.

  Follow gcmap on Facebook Follow gcmap on Twitter Follow gcmap on Google+ GCmap on LinkedIn

hCard Microformat

Geo Microformat